FENGYUN 1C DEB, 46444

Orbit data source: Space-Track

FENGYUN 1C DEB, 46444 is space debris in SSO originally from a launch on Mon, 10 May 1999 UTC launched from the Taiyaun Space Center, China (TSC). Fengyun 1C debris stems from the Chinese weather satellite Fengyun-1C, which was intentionally destroyed by a Chinese anti-satellite missile in 2007. This event dramatically increased the amount of space debris, with thousands of trackable fragments posing hazards to satellites and human spaceflight. The Fengyun 1C debris cloud has become a focal point in discussions about space sustainability and the need for international regulations to prevent the creation of new debris.

Loading next visibility...
Identifier
46444, 1999-025EYZ
Orbit
SSO
Country
Flag of CNCN / PRC
Related business
Manufacturer
Unknown
Mission
Spacecraft
Bus & Motor
Unknown
Mass
Unknown
Launch date (UTC)
1999-05-10 (27 years ago)
Launch vehicle
Unknown
Launch site
Taiyaun Space Center, China (TSC)
Object type
Payload
Rocket body
Debris
Shape & HBR
Unknown shape, 0.1 m
Radar Cross Section
Small (<0.1 m²)

Expand to show TLE details & history
Last TLE update: 4 days ago

TLE from 4 days ago
0 FENGYUN 1C DEB
1 46444U 99025EYZ 26251.25253536  .00000848  00000-0  34666-3 0  9992
2 46444  98.5209 251.4160 0084441  81.0757 343.8753 14.27794415664277
Epoch: 2026-09-08T06:03Z
TLE epoch observation values (Epoch: 2026-09-08T06:03:39.055Z)
Latitude
63.46678°
Longitude
155.81662°
Altitude
751.81 km
Speed
7.515 km/s
True Right ascension
15h 36m 12s
True Declination
63° 19' 44"
Sunlit
Object was in daylight at epoch
Visualization orbit readout
Latitude
Unknown
Longitude
Unknown
Altitude
Unknown
Speed
Unknown
Apparent Right ascension
Unknown
Apparent Declination
Unknown
Sunlit
N/A
Visualization observer readout
Local Sidereal Time
12:02:27
Azimuth
Unknown
Elevation
Unknown
Doppler factor
Unknown
Orbital elements
Apogee altitude
856.833 km
Perigee altitude
735.67 km
Semi-major axis
7,174.389 km
Eccentricity
0.00844
Inclination
98.5209°
RAAN
251.416°
Arg. of periapsis
81.0757°
True anomaly
343.60381°
Mean anomaly
343.8753°
Eccentric anomaly
343.73983°
Mean motion
3.57162 °/min
Orbital period
100.79 mins
BSTAR
0.00034666
Loading maneuver chart data...
Computing Atmospheric mass density...
Loading historical data...
Loading historical data...
Loading historical data...
Loading historical data...
Loading historical data...
Loading historical data...
Loading historical data...

Documentation

Showing up to 5 results
|